Main page
METAR-TAF:

METAR-TAF

Airports :

K13-a, Netherlands

Oil platform

latitude: 53-13-04N, longitude: 3-13-13E, elevation: 31 m

Current weather observation

The report was made 58 minutes ago, at 22:25 UTC
Wind 18 kt from the West/Southwest with gusts up to 21 kt
Temperature 19°C
Humidity 78%
Pressure 1010 hPa

METAR: EHJR 172225Z AUTO 24018G21KT //// ///////// 19/15 Q1010 W18/H15

Time: 01:23 (23:23 UTC)


TAF: missing

Weather observations and forecasts of more than 4000 airports (METAR and TAF reports).

The available stations are represented by yellow and red dots on the map.

Hover mouse over dot to see the name of the station.

Then click to see weather observations and forecasts.

To change the map : click on the green buttons with a black cross to zoom in, on the green button with a dash to zoom out, or on the green arrows for adjacent maps.


METAR-TAF: